Location: Unspecified
(45.3712°N, 0.6436°E)
Time: 00:35:48
(UTC+02:00)

ISS - Pass Details

Date: 20 July 2018
Orbit: 402 x 408 km, 51.6° (Epoch: 19 July)

Event Time Altitude Azimuth Distance (km) Brightness Sun altitude
Rises 05:25:26 0° 296° (WNW) 2,332 -0.2 -9.6°
Reaches altitude 10° 05:27:34 10° 289° (WNW) 1,470 -1.3 -9.4°
Maximum altitude 05:30:43 43° 217° (SW) 580 -3.5 -9.0°
Drops below altitude 10° 05:33:51 10° 144° (SE) 1,463 -1.0 -8.6°
Sets 05:35:59 0° 137° (SE) 2,320 0.1 -8.3°
